Location: Peebles
(55.6412°N, 3.1714°W)
Time: 22:55:14
(UTC+01:00)

DMSP 7529 - Pass Details

Date: 08 July 2022
Orbit: 766 x 803 km, 98.7° (Epoch: 15 August)

Event Time Altitude Azimuth Distance (km) Brightness Sun altitude
Rises 22:50:04 0° 12° (NNE) 3,322 9.0 -5.9°
Reaches altitude 10° 22:52:46 10° 360° (N) 2,391 8.6 -6.1°
Maximum altitude 22:56:58 25° 307° (NW) 1,589 7.7 -6.4°
Drops below altitude 10° 23:01:09 10° 254° (WSW) 2,385 7.8 -6.7°
Sets 23:03:51 0° 241° (WSW) 3,312 8.3 -6.9°
